Retour au catalogue

COSMOS 1275 DEB

ActifPO
NORAD 39947·DEBRIS·🇷🇺 Russia

Lancé Jun 4, 1981 depuis Plesetsk Cosmodrome

Loading…

Prochains Passages (prochaines 24 heures)

TLE

FraisSource: Space-Track

Époque: Sep 13, 2026, 00:22 UTC

1 39947U 81053NH  26256.01537723  .00000633  00000-0  68444-3 0  9999
2 39947  83.0083 267.9374 0116247 356.3220  34.7434 13.68886825610160

Suivez COSMOS 1275 DEB en temps réel avec AllMySat

Download on the App Store